| time (UTC) | temp F | wind direction | speed MPH | gust MPH | rain 1hr in | rain 24hr in | rain mn in | humidity % | barometer mb |
| 20260504190528 | 84 | 58 | 4.0 | 9.0 | 0.00 | 0.00 | 0.00 | 29 | 1021.6 |
| 20260504190031 | 84 | 21 | 4.0 | 7.0 | 0.00 | 0.00 | 0.00 | 31 | 1021.6 |
| 20260504185528 | 84 | 61 | 3.0 | 6.0 | 0.00 | 0.00 | 0.00 | 31 | 1021.7 |
| 20260504184528 | 85 | 107 | 4.0 | 9.0 | 0.00 | 0.00 | 0.00 | 32 | 1021.8 |
| 20260504184031 | 84 | 162 | 0.0 | 7.0 | 0.00 | 0.00 | 0.00 | 32 | 1021.7 |
| 20260504183528 | 84 | 183 | 3.0 | 7.0 | 0.00 | 0.00 | 0.00 | 32 | 1021.8 |
| 20260504182528 | 83 | 7 | 1.0 | 4.0 | 0.00 | 0.00 | 0.00 | 33 | 1022.0 |
| 20260504182029 | 83 | 3 | 2.0 | 4.0 | 0.00 | 0.00 | 0.00 | 31 | 1022.0 |
| 20260504181527 | 0 | 0.0 | 0.0 | 0.00 | 0.00 | 0.00 | 1022.1 | ||
| 20260504180519 | 0 | 0.0 | 0.0 | 0.00 | 0.00 | 0.00 | 1022.2 | ||
| 20260504180032 | 0 | 0.0 | 0.0 | 0.00 | 0.00 | 0.00 | 1022.3 | ||
| 20260504175524 | 82 | 38 | 4.0 | 7.0 | 0.00 | 0.00 | 0.00 | 32 | 1022.3 |
| 20260504175029 | 82 | 38 | 4.0 | 7.0 | 0.00 | 0.00 | 0.00 | 32 | 1022.5 |
| 20260504174522 | 82 | 80 | 2.0 | 5.0 | 0.00 | 0.00 | 0.00 | 32 | 1022.7 |
| 20260504174029 | 82 | 169 | 2.0 | 6.0 | 0.00 | 0.00 | 0.00 | 32 | 1022.8 |
| 20260504173522 | 81 | 120 | 3.0 | 6.0 | 0.00 | 0.00 | 0.00 | 33 | 1022.9 |
| 20260504173028 | 81 | 4 | 3.0 | 6.0 | 0.00 | 0.00 | 0.00 | 35 | 1022.9 |
| 20260504172522 | 81 | 309 | 3.0 | 5.0 | 0.00 | 0.00 | 0.00 | 34 | 1022.8 |
| 20260504172028 | 80 | 330 | 2.0 | 5.0 | 0.00 | 0.00 | 0.00 | 33 | 1023.0 |
| 20260504171523 | 80 | 48 | 3.0 | 10.0 | 0.00 | 0.00 | 0.00 | 35 | 1023.1 |
| 20260504171029 | 81 | 0 | 6.0 | 10.0 | 0.00 | 0.00 | 0.00 | 35 | 1023.0 |
| 20260504170523 | 81 | 45 | 2.0 | 9.0 | 0.00 | 0.00 | 0.00 | 35 | 1023.1 |
| 20260504151025 | 76 | 10 | 4.0 | 11.0 | 0.00 | 0.00 | 0.00 | 42 | 1024.1 |
| 20260504150520 | 76 | 305 | 7.0 | 11.0 | 0.00 | 0.00 | 0.00 | 42 | 1024.1 |
| 20260504141017 | 74 | 87 | 5.0 | 6.0 | 0.00 | 0.00 | 0.00 | 47 | 1024.1 |
| 20260504140519 | 74 | 76 | 3.0 | 6.0 | 0.00 | 0.00 | 0.00 | 48 | 1024.2 |
| 20260504130515 | 66 | 23 | 2.0 | 5.0 | 0.00 | 0.00 | 0.00 | 77 | 1024.2 |
| 20260504110502 | 0 | 0.0 | 0.0 | 0.00 | 0.00 | 0.00 | 1023.6 | ||
| 20260504081941 | 53 | 79 | 0.0 | 0.0 | 0.00 | 0.00 | 0.00 | 86 | 1023.4 |
| 20260504080941 | 53 | 79 | 0.0 | 0.0 | 0.00 | 0.00 | 0.00 | 87 | 1023.3 |
| 20260504080440 | 54 | 79 | 0.0 | 0.0 | 0.00 | 0.00 | 0.00 | 85 | 1023.3 |
| 20260504050435 | 59 | 79 | 0.0 | 1.0 | 0.00 | 0.00 | 0.00 | 79 | 1024.6 |
| 20260504045936 | 59 | 79 | 0.0 | 0.0 | 0.00 | 0.00 | 0.00 | 79 | 1024.6 |
| 20260504045435 | 59 | 79 | 0.0 | 0.0 | 0.00 | 0.00 | 0.00 | 79 | 1024.6 |
| 20260504044435 | 59 | 79 | 0.0 | 0.0 | 0.00 | 0.00 | 0.00 | 76 | 1024.6 |
| 20260504042934 | 60 | 79 | 0.0 | 0.0 | 0.00 | 0.00 | 0.00 | 76 | 1024.7 |
| 20260504042435 | 60 | 79 | 0.0 | 0.0 | 0.00 | 0.00 | 0.00 | 75 | 1024.8 |
| 20260504041936 | 60 | 79 | 0.0 | 0.0 | 0.00 | 0.00 | 0.00 | 75 | 1024.8 |
| 20260504041435 | 60 | 79 | 0.0 | 0.0 | 0.00 | 0.00 | 0.00 | 75 | 1024.8 |
| 20260504040435 | 60 | 79 | 0.0 | 0.0 | 0.00 | 0.00 | 0.00 | 75 | 1024.8 |
| 20260504035935 | 61 | 79 | 0.0 | 0.0 | 0.00 | 0.00 | 0.00 | 74 | 1024.7 |
| 20260504035435 | 61 | 79 | 0.0 | 0.0 | 0.00 | 0.00 | 0.00 | 74 | 1024.8 |
| 20260504034934 | 61 | 80 | 0.0 | 0.0 | 0.00 | 0.00 | 0.00 | 74 | 1024.8 |
| 20260504034434 | 61 | 79 | 0.0 | 2.0 | 0.00 | 0.00 | 0.00 | 73 | 1024.8 |
| 20260504033933 | 61 | 79 | 0.0 | 2.0 | 0.00 | 0.00 | 0.00 | 72 | 1024.9 |
| 20260504033435 | 62 | 79 | 0.0 | 2.0 | 0.00 | 0.00 | 0.00 | 72 | 1024.8 |
| 20260504032935 | 62 | 79 | 0.0 | 2.0 | 0.00 | 0.00 | 0.00 | 72 | 1024.8 |
| 20260504032434 | 62 | 79 | 0.0 | 0.0 | 0.00 | 0.00 | 0.00 | 71 | 1024.7 |
| 20260504031932 | 62 | 79 | 0.0 | 0.0 | 0.00 | 0.00 | 0.00 | 71 | 1024.7 |
| 20260504031433 | 62 | 79 | 0.0 | 1.0 | 0.00 | 0.00 | 0.00 | 71 | 1024.8 |
| 20260504030933 | 62 | 79 | 0.0 | 2.0 | 0.00 | 0.00 | 0.00 | 71 | 1024.7 |
| 20260504025933 | 63 | 79 | 0.0 | 1.0 | 0.00 | 0.00 | 0.00 | 69 | 1024.5 |
| 20260504025434 | 63 | 79 | 0.0 | 2.0 | 0.00 | 0.00 | 0.00 | 69 | 1024.5 |
| 20260504023933 | 65 | 79 | 0.0 | 2.0 | 0.00 | 0.00 | 0.00 | 66 | 1024.4 |
| 20260504022931 | 65 | 79 | 0.0 | 1.0 | 0.00 | 0.00 | 0.00 | 65 | 1024.3 |
| 20260504021932 | 66 | 79 | 0.0 | 2.0 | 0.00 | 0.00 | 0.00 | 64 | 1024.1 |
| 20260504021434 | 67 | 79 | 0.0 | 1.0 | 0.00 | 0.00 | 0.00 | 63 | 1024.2 |
| 20260504020932 | 67 | 79 | 0.0 | 0.0 | 0.00 | 0.00 | 0.00 | 63 | 1024.0 |
| 20260504020432 | 67 | 79 | 0.0 | 0.0 | 0.00 | 0.00 | 0.00 | 61 | 1023.9 |
| 20260504015933 | 67 | 79 | 0.0 | 2.0 | 0.00 | 0.00 | 0.00 | 61 | 1023.8 |
| 20260504015432 | 68 | 79 | 0.0 | 2.0 | 0.00 | 0.00 | 0.00 | 60 | 1023.8 |
| 20260504014932 | 68 | 79 | 0.0 | 2.0 | 0.00 | 0.00 | 0.00 | 60 | 1023.8 |
| 20260504013932 | 69 | 79 | 0.0 | 2.0 | 0.00 | 0.00 | 0.00 | 59 | 1023.6 |
| 20260504013431 | 69 | 79 | 0.0 | 2.0 | 0.00 | 0.00 | 0.00 | 59 | 1023.5 |
| 20260504012930 | 69 | 79 | 0.0 | 1.0 | 0.00 | 0.00 | 0.00 | 58 | 1023.4 |
| 20260504012430 | 69 | 79 | 0.0 | 1.0 | 0.00 | 0.00 | 0.00 | 57 | 1023.3 |
| 20260504011931 | 69 | 79 | 0.0 | 2.0 | 0.00 | 0.00 | 0.00 | 57 | 1023.2 |
| 20260504011430 | 69 | 79 | 1.0 | 2.0 | 0.00 | 0.00 | 0.00 | 57 | 1023.2 |
| 20260504010931 | 69 | 17 | 1.0 | 3.0 | 0.00 | 0.00 | 0.00 | 57 | 1023.0 |
| 20260504010430 | 69 | 4 | 1.0 | 3.0 | 0.00 | 0.00 | 0.00 | 55 | 1022.9 |
| 20260504005430 | 70 | 30 | 1.0 | 4.0 | 0.00 | 0.00 | 0.00 | 54 | 1022.8 |
| 20260504004430 | 70 | 86 | 0.0 | 2.0 | 0.00 | 0.00 | 0.00 | 51 | 1022.7 |
| 20260504003431 | 71 | 87 | 0.0 | 2.0 | 0.00 | 0.00 | 0.00 | 48 | 1022.7 |
| 20260504002931 | 71 | 87 | 1.0 | 2.0 | 0.00 | 0.00 | 0.00 | 48 | 1022.4 |
| 20260504001430 | 73 | 87 | 0.0 | 1.0 | 0.00 | 0.00 | 0.00 | 47 | 1022.2 |
| 20260504000930 | 74 | 87 | 0.0 | 1.0 | 0.00 | 0.00 | 0.00 | 47 | 1022.2 |
| 20260504000431 | 74 | 87 | 0.0 | 1.0 | 0.00 | 0.00 | 0.00 | 46 | 1022.2 |
| 20260503235928 | 74 | 87 | 0.0 | 4.0 | 0.00 | 0.00 | 0.00 | 46 | 1022.0 |
| 20260503235429 | 74 | 316 | 1.0 | 4.0 | 0.00 | 0.00 | 0.00 | 44 | 1022.0 |
| 20260503234425 | 74 | 338 | 1.0 | 4.0 | 0.00 | 0.00 | 0.00 | 42 | 1022.0 |
| 20260503233928 | 75 | 296 | 2.0 | 4.0 | 0.00 | 0.00 | 0.00 | 42 | 1022.0 |
| 20260503233429 | 75 | 350 | 2.0 | 4.0 | 0.00 | 0.00 | 0.00 | 41 | 1021.9 |
| 20260503232928 | 75 | 345 | 1.0 | 4.0 | 0.00 | 0.00 | 0.00 | 41 | 1022.0 |
| 20260503232429 | 76 | 320 | 3.0 | 5.0 | 0.00 | 0.00 | 0.00 | 40 | 1022.1 |
| 20260503231927 | 76 | 324 | 3.0 | 5.0 | 0.00 | 0.00 | 0.00 | 40 | 1022.1 |
| 20260503231428 | 76 | 336 | 3.0 | 7.0 | 0.00 | 0.00 | 0.00 | 40 | 1022.1 |
| 20260503230927 | 76 | 313 | 5.0 | 7.0 | 0.00 | 0.00 | 0.00 | 39 | 1022.1 |
| 20260503225927 | 76 | 316 | 3.0 | 6.0 | 0.00 | 0.00 | 0.00 | 39 | 1022.1 |
| 20260503223927 | 77 | 317 | 3.0 | 7.0 | 0.00 | 0.00 | 0.00 | 37 | 1021.9 |
| 20260503223426 | 77 | 3 | 2.0 | 7.0 | 0.00 | 0.00 | 0.00 | 39 | 1021.9 |
| 20260503222928 | 77 | 345 | 2.0 | 6.0 | 0.00 | 0.00 | 0.00 | 39 | 1021.8 |
| 20260503222428 | 77 | 320 | 4.0 | 6.0 | 0.00 | 0.00 | 0.00 | 38 | 1021.9 |
| 20260503221426 | 77 | 307 | 3.0 | 6.0 | 0.00 | 0.00 | 0.00 | 37 | 1021.9 |
| 20260503220927 | 77 | 336 | 2.0 | 6.0 | 0.00 | 0.00 | 0.00 | 37 | 1022.0 |
| 20260503220427 | 77 | 317 | 3.0 | 5.0 | 0.00 | 0.00 | 0.00 | 36 | 1022.0 |
| 20260503215927 | 77 | 212 | 2.0 | 3.0 | 0.00 | 0.00 | 0.00 | 35 | 1021.9 |
| 20260503215427 | 77 | 180 | 1.0 | 3.0 | 0.00 | 0.00 | 0.00 | 35 | 1022.0 |
| 20260503214927 | 77 | 202 | 1.0 | 5.0 | 0.00 | 0.00 | 0.00 | 34 | 1022.1 |
| 20260503214428 | 78 | 0 | 2.0 | 7.0 | 0.00 | 0.00 | 0.00 | 35 | 1022.1 |
| 20260503213926 | 78 | 321 | 4.0 | 7.0 | 0.00 | 0.00 | 0.00 | 36 | 1022.1 |
| 20260503213426 | 78 | 343 | 3.0 | 5.0 | 0.00 | 0.00 | 0.00 | 35 | 1022.0 |
| 20260503212925 | 78 | 37 | 2.0 | 6.0 | 0.00 | 0.00 | 0.00 | 35 | 1022.0 |
| 20260503212424 | 78 | 344 | 2.0 | 7.0 | 0.00 | 0.00 | 0.00 | 36 | 1022.1 |
| 20260503211926 | 79 | 341 | 2.0 | 7.0 | 0.00 | 0.00 | 0.00 | 36 | 1022.1 |
| 20260503210425 | 79 | 48 | 2.0 | 10.0 | 0.00 | 0.00 | 0.00 | 36 | 1022.1 |
| 20260503205925 | 78 | 306 | 2.0 | 10.0 | 0.00 | 0.00 | 0.00 | 36 | 1022.0 |
| 20260503205424 | 78 | 330 | 4.0 | 9.0 | 0.00 | 0.00 | 0.00 | 36 | 1022.1 |
| 20260503204925 | 79 | 16 | 5.0 | 9.0 | 0.00 | 0.00 | 0.00 | 36 | 1022.1 |
| 20260503204426 | 79 | 303 | 6.0 | 9.0 | 0.00 | 0.00 | 0.00 | 38 | 1022.2 |
| 20260503203924 | 79 | 321 | 3.0 | 7.0 | 0.00 | 0.00 | 0.00 | 37 | 1022.2 |
| 20260503203425 | 79 | 1 | 1.0 | 7.0 | 0.00 | 0.00 | 0.00 | 41 | 1022.3 |
| 20260503202925 | 78 | 288 | 1.0 | 10.0 | 0.00 | 0.00 | 0.00 | 40 | 1022.3 |
| 20260503201424 | 78 | 71 | 5.0 | 7.0 | 0.00 | 0.00 | 0.00 | 40 | 1022.7 |
| 20260503200924 | 78 | 69 | 2.0 | 6.0 | 0.00 | 0.00 | 0.00 | 40 | 1022.7 |
| 20260503200423 | 78 | 357 | 3.0 | 7.0 | 0.00 | 0.00 | 0.00 | 38 | 1022.8 |
| 20260503195923 | 77 | 25 | 4.0 | 9.0 | 0.00 | 0.00 | 0.00 | 38 | 1022.9 |
| 20260503195424 | 77 | 348 | 3.0 | 10.0 | 0.00 | 0.00 | 0.00 | 38 | 1022.8 |
| 20260503194923 | 77 | 350 | 7.0 | 10.0 | 0.00 | 0.00 | 0.00 | 39 | 1022.9 |
| 20260503193924 | 77 | 6 | 4.0 | 10.0 | 0.00 | 0.00 | 0.00 | 37 | 1023.0 |
| 20260503193424 | 77 | 0 | 6.0 | 10.0 | 0.00 | 0.00 | 0.00 | 39 | 1023.2 |
| 20260503192922 | 77 | 338 | 4.0 | 10.0 | 0.00 | 0.00 | 0.00 | 38 | 1023.2 |
| 20260503192423 | 77 | 0 | 7.0 | 10.0 | 0.00 | 0.00 | 0.00 | 37 | 1023.4 |
| 20260503191918 | 76 | 314 | 4.0 | 13.0 | 0.00 | 0.00 | 0.00 | 38 | 1023.6 |
| 20260503190922 | 77 | 345 | 5.0 | 9.0 | 0.00 | 0.00 | 0.00 | 40 | 1023.7 |